Weather History for KADF - May, 2014

Change the Weather History Date:

Monday, May 5, 2014

  Actual Average Record
Temperature  
Mean Temperature 69 °F -  
Max Temperature 86 °F - - ()
Min Temperature 52 °F - - ()
Cooling Degree Days 4    
Growing Degree Days 19 (Base 50)    
Moisture  
Dew Point 54 °F    
Average Humidity 62    
Maximum Humidity 97    
Minimum Humidity 31    
Precipitation  
Precipitation 0.00 in - - ()
Sea Level Pressure  
Sea Level Pressure 29.96 in    
Wind  
Wind Speed 4 mph (SSW)    
Max Wind Speed 16 mph    
Max Gust Speed -    
Visibility 10 miles    
Events      
Averages and records for this station are not official NWS values.
T = Trace of Precipitation, MM = Missing Value Source: NWS Daily Summary

Daily Weather History Graph

Daily Weather History Graph

Search for Another Location

Airport or City:

Trip Planner

Search our weather history database for the weather conditions in past years. The results will help you decide how hot, cold, wet, or windy it might be!

Date:

Astronomy

May. 05, 2014 Rise Set
Actual Time 6:19 AM CDT 7:59 PM CDT
Civil Twilight 5:52 AM CDT 8:26 PM CDT
Nautical Twilight 5:19 AM CDT 8:59 PM CDT
Astronomical Twilight 4:45 AM CDT 9:33 PM CDT
Moon 11:38 AM CDT (5/5) 12:44 AM CDT (5/5)
Length of Visible Light 14h 34m
Length of Day
13h 40m
Waxing Crescent, 37% of the Moon is Illuminated
May 5
Waxing Crescent
May 6
First Quarter
May 14
Full
May 21
Last Quarter
May 28
New

Hourly Weather History & Observations

Time (CDT) Temp. Heat Index Dew Point Humidity Pressure Visibility Wind Dir Wind Speed Gust Speed Precip Events Conditions
12:56 AM 61.0 °F - 55.9 °F 83% 30.01 in 10.0 mi Calm Calm - N/A   Clear
1:56 AM 59.0 °F - 56.8 °F 93% 29.99 in 10.0 mi Calm Calm - N/A   Clear
2:56 AM 59.0 °F - 55.9 °F 90% 29.98 in 10.0 mi Calm Calm - N/A   Clear
3:56 AM 59.0 °F - 54.9 °F 86% 29.99 in 10.0 mi Calm Calm - 0.00 in   Clear
4:56 AM 54.0 °F - 52.9 °F 96% 29.99 in 10.0 mi Calm Calm - N/A   Clear
5:56 AM 52.9 °F - 52.0 °F 97% 30.01 in 10.0 mi Calm Calm - N/A   Clear
6:56 AM 54.9 °F - 52.9 °F 93% 30.02 in 10.0 mi Calm Calm - N/A   Clear
7:56 AM 61.9 °F - 55.9 °F 81% 30.04 in 10.0 mi Calm Calm - N/A   Clear
8:56 AM 68.9 °F - 50.9 °F 53% 30.04 in 10.0 mi SW 11.5 mph - N/A   Clear
9:56 AM 72.9 °F - 47.8 °F 41% 30.03 in 10.0 mi SW 15.0 mph - N/A   Clear
10:56 AM 75.9 °F - 47.8 °F 37% 30.02 in 10.0 mi SW 10.4 mph - N/A   Clear
11:56 AM 79.0 °F - 48.9 °F 35% 30.01 in 10.0 mi SW 11.5 mph - N/A   Clear
12:56 PM 81.0 °F - 52.9 °F 38% 29.98 in 10.0 mi SSW 10.4 mph - N/A   Clear
1:56 PM 82.9 °F - 52.0 °F 34% 29.96 in 10.0 mi SSW 15.0 mph - N/A   Clear
2:56 PM 84.9 °F - 52.9 °F 33% 29.94 in 10.0 mi SW 13.8 mph - N/A   Clear
3:56 PM 86.9 °F 85.1 °F 54.9 °F 33% 29.90 in 10.0 mi South 15.0 mph - N/A   Clear
4:56 PM 86.9 °F - 52.9 °F 31% 29.88 in 10.0 mi SSW 12.7 mph - N/A   Clear
5:56 PM 86.0 °F - 52.0 °F 31% 29.87 in 10.0 mi SSW 16.1 mph - N/A   Clear
6:56 PM 82.9 °F - 52.9 °F 35% 29.86 in 10.0 mi SSW 8.1 mph - N/A   Clear
7:56 PM 77.9 °F - 54.9 °F 45% 29.88 in 10.0 mi SSW 5.8 mph - N/A   Clear
8:56 PM 68.0 °F - 61.9 °F 81% 29.88 in 10.0 mi Calm Calm - N/A   Clear
9:56 PM 65.8 °F - 61.0 °F 84% 29.90 in 10.0 mi Calm Calm - N/A   Clear
10:56 PM 63.9 °F - 61.0 °F 90% 29.90 in 10.0 mi Calm Calm - N/A   Clear
11:56 PM 68.0 °F - 57.9 °F 70% 29.91 in 10.0 mi South 4.6 mph - N/A   Clear